This is the latest recevied weather packets stored in our database for station/object JG6YPS-13. If no packets are shown the sender has not sent any weather packets the latest 10 day(s).
| Time | Temp. | Humidity | Pressure | Rain* | Wind** | Luminosity | Snow |
|---|---|---|---|---|---|---|---|
| 1777790378 | 18.33° C | 93% | 1004.5 hPa | 8.89 mm | - | - | - |
| 1777789779 | 18.33° C | 93% | 1004.6 hPa | 10.92 mm | - | - | - |
| 1777789179 | 18.33° C | 93% | 1004.6 hPa | 11.94 mm | - | - | - |
| 1777788579 | 18.33° C | 93% | 1004.8 hPa | 10.92 mm | - | - | - |
| 1777787979 | 18.33° C | 93% | 1005.1 hPa | 8.89 mm | - | - | - |
| 1777787380 | 18.33° C | 93% | 1005.1 hPa | 9.14 mm | - | - | - |
| 1777786780 | 18.33° C | 92% | 1005.1 hPa | 9.14 mm | - | - | - |
| 1777786180 | 18.33° C | 92% | 1004.8 hPa | 7.11 mm | - | - | - |
| 1777785580 | 18.33° C | 92% | 1005.1 hPa | 5.59 mm | - | - | - |
| 1777784981 | 18.33° C | 92% | 1005.4 hPa | 5.08 mm | - | - | - |
| 1777784381 | 18.33° C | 92% | 1005.5 hPa | 5.08 mm | - | - | - |
| 1777783781 | 18.33° C | 91% | 1005.7 hPa | 4.06 mm | - | - | - |
| 1777783182 | 18.33° C | 91% | 1005.8 hPa | 3.05 mm | - | - | - |
| 1777782582 | 17.78° C | 90% | 1005.8 hPa | 2.79 mm | - | - | - |
| 1777781982 | 18.33° C | 90% | 1006 hPa | 2.03 mm | - | - | - |
| 1777781382 | 18.33° C | 90% | 1006.3 hPa | 1.78 mm | - | - | - |
| 1777780782 | 18.33° C | 90% | 1006.4 hPa | 1.27 mm | - | - | - |
| 1777780183 | 18.33° C | 90% | 1006.5 hPa | 1.78 mm | - | - | - |
| 1777779583 | 18.33° C | 89% | 1006.8 hPa | 0.76 mm | - | - | - |
| 1777778983 | 18.33° C | 90% | 1006.8 hPa | 0.25 mm | - | - | - |
| 1777778384 | 17.78° C | 90% | 1007.1 hPa | 0.25 mm | - | - | - |
| 1777777784 | 17.78° C | 89% | 1007.3 hPa | 0.25 mm | - | - | - |
| 1777777184 | 17.78° C | 90% | 1007.6 hPa | 0.25 mm | - | - | - |
| 1777776585 | 17.78° C | 89% | 1007.7 hPa | 0 mm | - | - | - |
| 1777775985 | 17.78° C | 89% | 1007.8 hPa | 0 mm | - | - | - |
* Rain latest hour (hover to see other rain measurements)
** Current wind speed in m/s (hover to see current wind gust speed)